map of PUQ home
Great Circle Mapper logo
PUQ - Airport
Location
City:  Punta Arenas, Magallanes, Chile
Name:Presidente Carlos Ibáñez del Campo International Airport
ICAO / IATA:SCCI / PUQ

Details
Type:Airport (Aerodrome, Airfield)
Use:Public/Civil, Military, International (customs port of entry)
Latitude:53°00'10"S (-53.002641)
Longitude:70°51'17"W (-70.854585)
Datum:WGS 1984
Elevation:139 ft (42 m)
Runways:3
Longest:9154 × 148 ft (2790 × 45 m), paved

Time
Time Zone:UTC-4 (DST-3)
Local Time:

Weather
METAR:SCCI 210000Z 26008KT 9999 FEW040 SCT080 10/06 Q0993 NOSIG
TAF:SCCI 202248Z 2100/2200 14008KT 9999 FEW040 TN05/2109Z TX10/2118Z
BECMG 2100/2102 23007KT
BECMG 2104/2106 26010KT FEW010 SCT033
BECMG 2113/2115 29012KT
TEMPO 2115/2200 29015G25KT 8000 -SHRA -SHGR BKN025
BECMG 2120/2122 23015KT

Related Locations
Nearby:
Farthest:UUD: 12323 mi / 19832 km
Ulan Ude [Mukhino], Buryatia, RU

Find:

   beyond  
but within

Other Information
Maps:
NOTAMs:
Links:
Sources:

  
flag of Chile
flag of Magallanes
  

Sectional Chart

Flight Planning
at skyvector.com

Satellite Image

Google Maps Satellite View

 

Copyright © 2004-2014 Karl L. Swartz. All rights reserved.
The Great Circle Mapper name and logo are trademarks of the Great Circle Mapper.
All other trademarks mentioned herein belong to their respective owners.
Please see credits for attibutions and further copyright information.

  Follow gcmap on Facebook Follow gcmap on Twitter

hCard Microformat

Geo Microformat